Вернуться в каталог

HULIANWANG DIGUI-17

АктивенСвязьLEO
NORAD 62977·PAYLOAD·🇨🇳 China

Запущен Feb 11, 2025 с Wenchang Space Launch Site

Loading…

Ближайшие Пролёты (ближайшие 24 часа)

TLE

СвежийSource: Space-Track

Эпоха: Sep 14, 2026, 13:45 UTC

1 62977U 25030G   26257.57355260 -.00000095  00000-0  61871-4 0  9998
2 62977  50.0054 275.0205 0000483  26.6835 333.4062 13.29328256 77751

Отслеживайте HULIANWANG DIGUI-17 в реальном времени с AllMySat

Download on the App Store